Location: Caserta
(41.0670°N, 14.3330°E)
Time: 13:12:21
(UTC+02:00)

STARLINK-1329 - Pass Details

Date: 03 October 2020
Orbit: 549 x 550 km, 53.0° (Epoch: 21 October)

Event Time Altitude Azimuth Distance (km) Brightness Sun altitude
Exits shadow 03:45:43 12° 52° (NE) 1,673 6.8 -36.3°
Drops below altitude 10° 03:46:06 10° 52° (NE) 1,824 7.0 -36.3°
Sets 03:48:20 0° 52° (NE) 2,720 8.2 -35.9°
